This demonstration page uses our WeatherBlox Daily Observations layout. Learn more.

40.92945, -100.16068

Hourly Observations for March 30, 2015

Temp ( °F °C ) Dew Point ( °F °C ) Humidity (%) Winds ( mph kmh ) Pressure ( in mb ) Visibility ( mi km ) Precip ( " mm )
12:15 am 00:15 Clear 36 2.2 14 -9.8 41 41 Calm 30.21 1023 10 16.0934 N/A
12:35 am 00:35 Clear 33 0.3 14 -10 46 46 Calm 30.24 1024 10 16.0934 N/A
12:55 am 00:55 Clear 36 2.2 15 -9.2 43 43 S 3 6 30.21 1023 10 16.0934 N/A
1:15 am 01:15 Clear 36 2.1 16 -9.1 44 44 S 3 6 30.21 1023 10 16.0934 N/A
1:35 am 01:35 Clear 40 4.6 16 -9.1 37 37 S 5 7 30.18 1022 10 16.0934 N/A
1:55 am 01:55 Clear 42 5.4 18 -7.7 39 39 SSW 8 13 30.18 1022 10 16.0934 N/A
2:15 am 02:15 Clear 47 8.4 16 -8.7 29 29 S 10 17 30.15 1021 10 16.0934 N/A
2:35 am 02:35 Clear 47 8.3 15 -9.5 28 28 S 12 19 30.12 1020 10 16.0934 N/A
2:55 am 02:55 Clear 45 7 15 -9.7 30 30 S 8 13 30.15 1021 10 16.0934 N/A
3:15 am 03:15 Clear 46 7.6 15 -9.7 28 28 S 9 15 30.12 1020 10 16.0934 N/A
3:35 am 03:35 Clear 46 7.5 14 -9.8 28 28 S 8 13 30.12 1020 10 16.0934 N/A
3:55 am 03:55 Clear 45 7.2 14 -9.8 29 29 SSW 7 11 30.15 1021 10 16.0934 N/A
4:15 am 04:15 Clear 45 7.1 14 -9.8 29 29 SSW 13 20 30.15 1021 10 16.0934 N/A
4:35 am 04:35 Clear 45 7.4 15 -9.6 29 29 SSW 6 9 30.15 1021 10 16.0934 N/A
4:55 am 04:55 Clear 46 7.6 14 -9.8 28 28 SSW 14 22 30.09 1019 10 16.0934 N/A
5:15 am 05:15 Clear 45 7.3 15 -9.7 29 29 SSW 12 19 30.12 1020 10 16.0934 N/A
5:35 am 05:35 Clear 43 6.2 15 -9.6 32 32 SW 14 22 30.12 1020 10 16.0934 N/A
5:55 am 05:55 Clear 43 6 15 -9.5 32 32 SW 9 15 30.12 1020 10 16.0934 N/A
6:15 am 06:15 Clear 43 6.2 15 -9.6 32 32 SW 8 13 30.12 1020 10 16.0934 N/A
6:35 am 06:35 Clear 44 6.9 15 -9.7 30 30 WSW 3 6 30.12 1020 10 16.0934 N/A
6:55 am 06:55 Clear 44 6.9 14 -10 29 29 SW 3 6 30.12 1020 10 16.0934 N/A
7:15 am 07:15 Clear 45 7.2 14 -10 29 29 Calm 30.12 1020 10 16.0934 N/A
7:35 am 07:35 Sunny 42 5.7 14 -9.9 32 32 W 3 6 30.12 1020 10 16.0934 N/A
7:55 am 07:55 Sunny 44 6.4 15 -9.4 32 32 SW 3 6 30.12 1020 10 16.0934 N/A
8:15 am 08:15 Sunny 47 8.4 17 -8.6 29 29 SW 14 22 30.09 1019 10 16.0934 N/A
8:35 am 08:35 Sunny 49 9.4 17 -8.5 28 28 SW 9 15 30.09 1019 10 16.0934 N/A
8:55 am 08:55 Sunny 51 10.4 18 -8 27 27 SW 12 19 30.09 1019 10 16.0934 N/A
9:15 am 09:15 Sunny 53 11.5 19 -7.5 26 26 WSW 15 24 30.06 1018 10 16.0934 N/A
9:35 am 09:35 Sunny 54 12.2 20 -6.9 26 26 SW 14 22 30.06 1018 10 16.0934 N/A
9:55 am 09:55 Sunny 56 13.5 21 -6 25 25 WSW 14 22 30.03 1017 10 16.0934 N/A
10:15 am 10:15 Sunny 57 14 22 -5.5 26 26 WSW 14 22 30 1016 10 16.0934 N/A
10:35 am 10:35 Sunny 59 14.8 24 -4.4 26 26 WSW 15 24 30 1016 10 16.0934 N/A
10:55 am 10:55 Sunny 60 15.7 25 -3.7 26 26 WSW 20 31 30 1016 10 16.0934 N/A
11:15 am 11:15 Sunny 61 16.2 26 -3.4 26 26 WSW 16 26 30 1016 10 16.0934 N/A
11:35 am 11:35 Sunny 63 17.2 26 -3.1 25 25 WSW 13 20 29.97 1015 10 16.0934 N/A
11:55 am 11:55 Sunny 65 18.4 27 -2.6 24 24 WSW 12 19 29.97 1015 10 16.0934 N/A
12:15 pm 12:15 Sunny 66 19 27 -2.9 23 23 WSW 14 22 29.97 1015 10 16.0934 N/A
12:35 pm 12:35 Sunny 68 19.8 28 -2.5 22 22 W 10 17 29.97 1015 10 16.0934 N/A
12:55 pm 12:55 Sunny 69 20.5 27 -2.9 21 21 WSW 6 9 29.94 1014 10 16.0934 N/A
1:15 pm 13:15 Sunny 70 21 27 -2.7 20 20 W 10 17 29.94 1014 10 16.0934 N/A
1:35 pm 13:35 Sunny 70 21.2 26 -3.3 19 19 Calm 29.94 1014 10 16.0934 N/A
1:55 pm 13:55 Sunny 72 22.4 27 -2.6 19 19 NW 6 9 29.91 1013 10 16.0934 N/A
2:15 pm 14:15 Sunny 73 22.6 26 -3.1 18 18 N 5 7 29.91 1013 10 16.0934 N/A
2:35 pm 14:35 Sunny 74 23.3 26 -3.3 17 17 Calm 29.91 1013 10 16.0934 N/A
2:55 pm 14:55 Sunny 76 24.7 25 -3.9 15 15 NNW 7 11 29.85 1011 10 16.0934 N/A
3:15 pm 15:15 Sunny 77 24.9 23 -4.8 14 14 N 12 19 29.85 1011 10 16.0934 N/A
3:35 pm 15:35 Sunny 77 25.1 24 -4.7 14 14 NNW 10 17 29.85 1011 10 16.0934 N/A
3:55 pm 15:55 Sunny 77 25.2 23 -4.9 13 13 NNW 10 17 29.85 1011 10 16.0934 N/A
4:15 pm 16:15 Sunny 78 25.5 22 -5.4 12 12 NW 15 24 29.85 1011 10 16.0934 N/A
4:35 pm 16:35 Sunny 77 25.2 23 -5.2 13 13 NNW 5 7 29.85 1011 10 16.0934 N/A
4:55 pm 16:55 Sunny 78 25.4 22 -5.4 13 13 NNW 8 13 29.85 1011 10 16.0934 N/A
5:15 pm 17:15 Sunny 77 25.2 22 -5.6 13 13 N 10 17 29.83 1010 10 16.0934 N/A
5:35 pm 17:35 Sunny 78 25.4 22 -5.8 12 12 N 15 24 29.83 1010 10 16.0934 N/A
5:55 pm 17:55 Sunny 77 25.1 21 -5.9 12 12 N 7 11 29.83 1010 10 16.0934 N/A
6:15 pm 18:15 Sunny 77 25 21 -6.3 12 12 NNW 13 20 29.83 1010 10 16.0934 N/A
6:35 pm 18:35 Sunny 76 24.7 20 -6.5 12 12 N 8 13 29.83 1010 10 16.0934 N/A
6:55 pm 18:55 Sunny 76 24.5 20 -6.4 12 12 N 9 15 29.83 1010 10 16.0934 N/A
7:15 pm 19:15 Sunny 74 23.6 21 -6.1 13 13 N 10 17 29.83 1010 10 16.0934 N/A
7:35 pm 19:35 Sunny 71 21.5 23 -5.2 16 16 NNE 13 20 29.88 1012 10 16.0934 N/A
7:55 pm 19:55 Sunny 66 19.1 24 -4.5 20 20 NNE 9 15 29.91 1013 10 16.0934 N/A
8:15 pm 20:15 Clear 63 17.4 24 -4.6 22 22 NNE 8 13 29.91 1013 10 16.0934 N/A
8:35 pm 20:35 Clear 61 16 23 -4.8 24 24 NNE 7 11 29.94 1014 10 16.0934 N/A
8:55 pm 20:55 Clear 60 15.7 24 -4.7 24 24 NNE 6 9 29.97 1015 10 16.0934 N/A
9:15 pm 21:15 Hazy 55 12.8 22 -5.5 28 28 N 8 13 30 1016 5 8.0467 N/A
9:35 pm 21:35 Clear 54 12.4 22 -5.5 28 28 N 6 9 30 1016 7 11.26538 N/A
9:55 pm 21:55 Clear 53 11.6 22 -5.5 30 30 NNE 5 7 30.03 1017 7 11.26538 N/A
10:15 pm 22:15 Clear 52 11 23 -4.9 33 33 NNE 5 7 30.03 1017 7 11.26538 N/A
10:35 pm 22:35 Clear 50 10 22 -5.3 34 34 N 3 6 30.06 1018 10 16.0934 N/A
10:55 pm 22:55 Clear 45 7.4 25 -3.9 45 45 Calm 30.09 1019 10 16.0934 N/A
11:15 pm 23:15 Clear 47 8.2 22 -5.4 38 38 Calm 30.06 1018 10 16.0934 N/A
11:35 pm 23:35 Clear 44 6.5 25 -4 47 47 Calm 30.09 1019 7 11.26538 N/A
11:55 pm 23:55 Clear 43 6.2 25 -3.8 49 49 Calm 30.09 1019 10 16.0934 N/A

Powered by AerisWeather